GEFSMW_prec_meanprecacc_072.txt.gz
Total_Precipitation_Accumulation
0.56 0.72 0.93 1.16 1.36 1.60 1.89 2.18 2.43 2.60 2.51 2.31 2.09 1.93 1.80 1.73 1.56 1.47 1.42 1.38 1.38 1.49 1.74 1.65 1.73 1.78 1.71 1.63 1.65 1.61 1.45 1.17 1.32 1.33 0.97 0.60 0.46 0.41 0.29 0.26 0.24 0.21 0.21
0.65 0.90 1.09 1.16 1.33 1.61 2.00 2.26 2.57 2.68 2.49 2.23 2.07 1.99 1.97 1.71 1.50 1.50 1.49 1.49 1.55 1.56 1.64 1.66 1.67 1.69 1.66 1.48 1.40 1.46 1.27 1.03 1.16 1.22 1.13 0.66 0.45 0.37 0.29 0.33 0.38 0.35 0.32
1.09 1.24 1.16 1.18 1.30 1.49 1.71 1.90 2.01 1.99 1.89 1.87 1.92 1.94 1.94 1.71 1.66 1.74 1.79 1.76 1.77 1.74 1.73 1.68 1.57 1.42 1.36 1.23 1.21 1.29 1.24 1.06 1.03 1.19 1.30 0.95 0.64 0.56 0.41 0.41 0.41 0.42 0.43
0.98 1.02 1.11 1.20 1.32 1.44 1.62 1.77 1.76 1.62 1.51 1.56 1.74 1.82 1.79 1.75 1.90 2.13 2.06 1.83 1.68 1.54 1.38 1.27 1.23 1.17 1.12 1.01 0.96 1.02 1.02 0.95 0.88 0.96 1.08 1.15 1.14 1.01 0.58 0.37 0.31 0.38 0.43
0.78 0.82 0.96 1.06 1.10 1.23 1.31 1.47 1.55 1.47 1.44 1.45 1.52 1.63 1.67 1.67 1.68 1.68 1.63 1.52 1.37 1.18 1.01 0.93 0.91 0.88 0.88 0.82 0.76 0.76 0.75 0.77 0.77 0.84 0.94 1.04 1.12 1.13 0.98 0.62 0.53 0.54 0.50
0.72 0.77 0.80 0.85 0.92 1.00 1.01 0.99 1.07 1.15 1.21 1.25 1.28 1.29 1.26 1.23 1.18 1.11 1.08 1.03 0.95 0.78 0.67 0.63 0.65 0.70 0.75 0.72 0.69 0.68 0.67 0.70 0.78 0.80 0.86 0.93 0.91 0.94 1.02 0.82 0.69 0.61 0.52
0.56 0.66 0.67 0.69 0.75 0.80 0.78 0.78 0.83 0.94 0.95 0.91 0.94 0.95 0.93 0.89 0.83 0.83 0.81 0.78 0.72 0.61 0.55 0.53 0.55 0.62 0.69 0.65 0.61 0.60 0.68 0.78 0.83 0.81 0.84 0.91 0.90 0.93 1.03 0.98 0.88 0.79 0.72
0.44 0.54 0.62 0.65 0.64 0.63 0.64 0.66 0.69 0.72 0.70 0.67 0.68 0.69 0.72 0.70 0.67 0.67 0.60 0.57 0.58 0.58 0.57 0.52 0.52 0.54 0.58 0.58 0.60 0.60 0.66 0.76 0.81 0.76 0.88 0.95 0.95 1.02 1.14 1.16 1.10 0.97 0.87
0.44 0.44 0.45 0.48 0.48 0.46 0.46 0.51 0.60 0.64 0.66 0.65 0.63 0.58 0.58 0.56 0.52 0.48 0.46 0.45 0.47 0.50 0.56 0.56 0.57 0.58 0.62 0.64 0.70 0.75 0.83 0.96 1.02 1.05 1.12 1.14 1.08 1.05 1.07 1.12 1.12 1.10 0.95
0.23 0.21 0.22 0.23 0.24 0.27 0.34 0.41 0.45 0.46 0.49 0.51 0.53 0.53 0.49 0.43 0.38 0.35 0.35 0.35 0.37 0.41 0.49 0.56 0.57 0.59 0.59 0.63 0.73 0.92 1.08 1.17 1.21 1.24 1.29 1.31 1.26 1.22 1.22 1.15 1.16 1.21 1.09
0.12 0.16 0.17 0.21 0.23 0.27 0.34 0.42 0.44 0.44 0.46 0.45 0.45 0.45 0.43 0.40 0.35 0.30 0.29 0.30 0.33 0.36 0.39 0.45 0.50 0.52 0.55 0.58 0.67 0.80 0.99 1.10 1.12 1.14 1.19 1.19 1.17 1.13 1.09 1.10 1.15 1.20 1.16
0.15 0.17 0.17 0.23 0.28 0.28 0.29 0.35 0.39 0.44 0.53 0.61 0.69 0.70 0.62 0.53 0.44 0.35 0.30 0.29 0.32 0.35 0.36 0.36 0.39 0.40 0.44 0.49 0.59 0.72 0.83 0.92 0.95 0.94 0.93 0.90 0.87 0.86 0.86 0.89 0.93 0.97 1.07
0.11 0.11 0.14 0.20 0.26 0.30 0.32 0.36 0.39 0.43 0.52 0.67 0.91 1.02 0.94 0.80 0.61 0.43 0.29 0.24 0.24 0.27 0.28 0.30 0.34 0.41 0.52 0.60 0.65 0.68 0.71 0.74 0.77 0.83 0.87 0.80 0.75 0.74 0.74 0.74 0.72 0.72 0.85
0.09 0.08 0.11 0.17 0.22 0.29 0.37 0.42 0.45 0.44 0.50 0.62 0.78 0.85 0.78 0.68 0.55 0.37 0.24 0.19 0.19 0.21 0.25 0.30 0.36 0.44 0.52 0.59 0.64 0.64 0.62 0.58 0.55 0.58 0.63 0.65 0.62 0.61 0.63 0.65 0.63 0.63 0.72
0.10 0.08 0.11 0.16 0.19 0.23 0.30 0.32 0.28 0.23 0.28 0.40 0.46 0.51 0.45 0.35 0.29 0.25 0.20 0.18 0.19 0.21 0.26 0.31 0.37 0.41 0.43 0.44 0.40 0.37 0.37 0.36 0.33 0.32 0.36 0.40 0.45 0.48 0.50 0.52 0.60 0.63 0.64
0.08 0.08 0.11 0.16 0.17 0.16 0.17 0.13 0.12 0.13 0.17 0.24 0.28 0.34 0.36 0.29 0.23 0.19 0.16 0.15 0.18 0.21 0.26 0.32 0.37 0.37 0.32 0.36 0.26 0.16 0.15 0.20 0.23 0.27 0.29 0.31 0.31 0.34 0.38 0.40 0.46 0.56 0.58
0.03 0.03 0.06 0.08 0.06 0.05 0.05 0.06 0.07 0.11 0.17 0.22 0.27 0.35 0.37 0.33 0.28 0.21 0.19 0.19 0.20 0.22 0.25 0.26 0.26 0.28 0.31 0.29 0.21 0.12 0.11 0.14 0.17 0.20 0.23 0.22 0.24 0.25 0.25 0.26 0.28 0.32 0.38
0.02 0.01 0.01 0.01 0.01 0.01 0.02 0.03 0.05 0.10 0.15 0.21 0.25 0.31 0.36 0.33 0.31 0.31 0.32 0.33 0.31 0.28 0.28 0.27 0.25 0.30 0.30 0.23 0.18 0.14 0.12 0.17 0.18 0.19 0.19 0.18 0.16 0.17 0.19 0.21 0.20 0.19 0.20
0.01 0.01 0.01 0.01 0.01 0.01 0.02 0.04 0.08 0.10 0.13 0.20 0.28 0.32 0.37 0.37 0.37 0.38 0.39 0.40 0.40 0.35 0.32 0.30 0.31 0.34 0.34 0.26 0.18 0.14 0.17 0.22 0.23 0.22 0.18 0.15 0.13 0.13 0.13 0.18 0.21 0.21 0.20
0.00 0.01 0.01 0.01 0.01 0.03 0.06 0.10 0.12 0.14 0.18 0.22 0.30 0.36 0.41 0.45 0.45 0.47 0.46 0.45 0.47 0.42 0.36 0.33 0.34 0.37 0.42 0.37 0.23 0.17 0.22 0.29 0.30 0.33 0.26 0.18 0.14 0.13 0.11 0.15 0.19 0.20 0.19
0.01 0.01 0.02 0.03 0.05 0.09 0.13 0.15 0.16 0.18 0.19 0.21 0.28 0.38 0.44 0.50 0.53 0.58 0.59 0.58 0.57 0.55 0.51 0.44 0.42 0.45 0.48 0.48 0.31 0.22 0.27 0.36 0.42 0.44 0.34 0.25 0.18 0.13 0.13 0.15 0.19 0.18 0.17
0.01 0.01 0.02 0.04 0.06 0.11 0.15 0.18 0.18 0.18 0.21 0.26 0.34 0.41 0.46 0.44 0.47 0.63 0.67 0.70 0.72 0.68 0.63 0.59 0.51 0.52 0.54 0.50 0.41 0.28 0.26 0.36 0.52 0.58 0.50 0.40 0.30 0.22 0.18 0.17 0.18 0.16 0.15
0.02 0.03 0.04 0.06 0.10 0.14 0.20 0.25 0.24 0.27 0.29 0.33 0.39 0.45 0.47 0.50 0.59 0.68 0.72 0.76 0.80 0.78 0.72 0.70 0.67 0.63 0.64 0.58 0.42 0.33 0.29 0.33 0.50 0.63 0.63 0.51 0.39 0.31 0.24 0.20 0.20 0.18 0.15
0.04 0.05 0.06 0.09 0.13 0.17 0.23 0.30 0.35 0.39 0.41 0.42 0.43 0.45 0.50 0.53 0.57 0.68 0.74 0.78 0.83 0.87 0.84 0.80 0.77 0.76 0.75 0.69 0.56 0.44 0.38 0.40 0.48 0.57 0.61 0.53 0.48 0.41 0.36 0.27 0.21 0.20 0.21
0.05 0.07 0.11 0.16 0.18 0.23 0.29 0.33 0.39 0.47 0.51 0.51 0.49 0.48 0.52 0.58 0.65 0.70 0.74 0.73 0.79 0.78 0.80 0.81 0.83 0.85 0.84 0.68 0.59 0.58 0.52 0.57 0.63 0.68 0.78 0.68 0.59 0.51 0.45 0.36 0.28 0.26 0.29
0.08 0.11 0.14 0.17 0.19 0.25 0.32 0.36 0.44 0.54 0.61 0.64 0.63 0.59 0.56 0.61 0.67 0.72 0.69 0.59 0.55 0.53 0.52 0.55 0.59 0.63 0.58 0.51 0.44 0.44 0.45 0.50 0.59 0.66 0.79 0.77 0.67 0.60 0.54 0.45 0.37 0.34 0.34

GEFSMW_prec_meanprecacc_078.txt.gz
Total_Precipitation_Accumulation
0.58 0.75 0.96 1.19 1.42 1.67 1.96 2.24 2.49 2.67 2.56 2.35 2.13 1.96 1.82 1.75 1.58 1.49 1.44 1.39 1.39 1.50 1.76 1.67 1.77 1.83 1.77 1.74 1.80 1.79 1.63 1.34 1.52 1.53 1.11 0.71 0.56 0.51 0.35 0.32 0.30 0.26 0.26
0.66 0.91 1.10 1.17 1.35 1.63 2.02 2.28 2.59 2.70 2.51 2.24 2.08 2.00 1.97 1.72 1.50 1.51 1.50 1.50 1.56 1.57 1.65 1.69 1.70 1.74 1.72 1.61 1.57 1.65 1.49 1.24 1.37 1.41 1.29 0.77 0.55 0.45 0.35 0.38 0.42 0.40 0.37
1.10 1.24 1.16 1.18 1.30 1.49 1.72 1.92 2.02 2.00 1.90 1.87 1.92 1.94 1.95 1.72 1.66 1.74 1.79 1.77 1.78 1.74 1.74 1.69 1.58 1.46 1.42 1.33 1.34 1.45 1.42 1.26 1.23 1.38 1.48 1.09 0.73 0.63 0.47 0.46 0.46 0.48 0.49
0.98 1.02 1.11 1.20 1.32 1.45 1.62 1.78 1.77 1.62 1.51 1.56 1.74 1.82 1.79 1.75 1.90 2.13 2.06 1.84 1.68 1.54 1.39 1.27 1.25 1.19 1.20 1.10 1.05 1.15 1.18 1.11 1.05 1.16 1.26 1.29 1.23 1.09 0.65 0.43 0.37 0.43 0.50
0.79 0.83 0.96 1.06 1.10 1.23 1.31 1.47 1.55 1.47 1.44 1.45 1.52 1.63 1.67 1.67 1.68 1.68 1.63 1.52 1.37 1.18 1.02 0.93 0.92 0.90 0.91 0.86 0.83 0.84 0.86 0.89 0.90 1.02 1.16 1.22 1.24 1.21 1.06 0.69 0.60 0.61 0.55
0.73 0.77 0.81 0.85 0.92 1.00 1.01 0.99 1.07 1.15 1.21 1.25 1.28 1.30 1.27 1.23 1.18 1.11 1.08 1.03 0.95 0.79 0.67 0.64 0.66 0.71 0.77 0.75 0.73 0.75 0.75 0.80 0.89 0.92 1.01 1.11 1.08 1.07 1.12 0.90 0.76 0.68 0.59
0.56 0.66 0.67 0.69 0.75 0.80 0.78 0.78 0.83 0.94 0.95 0.91 0.94 0.95 0.93 0.89 0.83 0.83 0.81 0.78 0.72 0.62 0.55 0.53 0.56 0.63 0.69 0.66 0.63 0.63 0.73 0.85 0.92 0.89 0.93 1.03 1.05 1.07 1.16 1.09 0.97 0.86 0.78
0.45 0.54 0.62 0.65 0.65 0.63 0.64 0.66 0.69 0.72 0.70 0.67 0.68 0.69 0.72 0.71 0.67 0.67 0.60 0.57 0.58 0.58 0.57 0.52 0.53 0.54 0.59 0.58 0.61 0.61 0.68 0.79 0.86 0.84 0.96 1.04 1.08 1.19 1.29 1.29 1.23 1.08 0.96
0.44 0.44 0.45 0.49 0.48 0.46 0.46 0.51 0.60 0.64 0.66 0.65 0.63 0.59 0.59 0.56 0.52 0.48 0.46 0.45 0.47 0.50 0.57 0.56 0.57 0.59 0.63 0.65 0.71 0.76 0.84 0.98 1.04 1.09 1.18 1.21 1.17 1.19 1.23 1.26 1.27 1.26 1.09
0.23 0.22 0.22 0.23 0.24 0.27 0.34 0.41 0.45 0.46 0.49 0.51 0.53 0.53 0.49 0.44 0.38 0.35 0.36 0.35 0.37 0.41 0.49 0.56 0.57 0.59 0.60 0.64 0.74 0.93 1.09 1.18 1.23 1.26 1.33 1.37 1.32 1.31 1.34 1.30 1.31 1.36 1.24
0.12 0.16 0.18 0.21 0.23 0.27 0.34 0.42 0.44 0.44 0.46 0.45 0.45 0.45 0.43 0.40 0.35 0.30 0.29 0.30 0.33 0.36 0.40 0.46 0.50 0.53 0.56 0.59 0.68 0.82 1.00 1.11 1.14 1.16 1.22 1.23 1.22 1.20 1.18 1.22 1.30 1.37 1.33
0.15 0.17 0.17 0.23 0.28 0.28 0.29 0.35 0.39 0.44 0.53 0.61 0.69 0.70 0.62 0.53 0.44 0.35 0.30 0.29 0.32 0.35 0.36 0.37 0.39 0.41 0.45 0.51 0.61 0.74 0.85 0.93 0.96 0.96 0.95 0.93 0.91 0.91 0.92 0.98 1.04 1.09 1.21
0.11 0.11 0.14 0.20 0.26 0.30 0.32 0.36 0.39 0.43 0.52 0.67 0.91 1.02 0.94 0.80 0.61 0.43 0.29 0.24 0.24 0.27 0.28 0.30 0.35 0.42 0.52 0.61 0.67 0.71 0.74 0.76 0.79 0.85 0.89 0.82 0.78 0.78 0.78 0.80 0.80 0.81 0.95
0.09 0.08 0.11 0.17 0.22 0.29 0.37 0.42 0.45 0.44 0.50 0.62 0.78 0.85 0.78 0.68 0.55 0.37 0.24 0.19 0.19 0.21 0.25 0.30 0.37 0.45 0.52 0.61 0.66 0.66 0.65 0.61 0.57 0.60 0.65 0.67 0.65 0.64 0.66 0.69 0.69 0.70 0.81
0.10 0.08 0.11 0.16 0.19 0.23 0.30 0.32 0.28 0.23 0.28 0.40 0.46 0.51 0.45 0.35 0.29 0.25 0.20 0.18 0.19 0.21 0.26 0.31 0.38 0.42 0.44 0.45 0.42 0.41 0.40 0.39 0.36 0.35 0.38 0.43 0.48 0.51 0.52 0.55 0.64 0.69 0.71
0.08 0.08 0.11 0.16 0.17 0.16 0.17 0.13 0.12 0.13 0.17 0.24 0.28 0.34 0.36 0.29 0.23 0.19 0.16 0.15 0.18 0.22 0.27 0.32 0.37 0.38 0.33 0.37 0.28 0.20 0.20 0.24 0.28 0.31 0.32 0.33 0.35 0.39 0.42 0.43 0.50 0.61 0.66
0.03 0.03 0.06 0.08 0.06 0.05 0.05 0.06 0.07 0.11 0.17 0.22 0.27 0.35 0.37 0.33 0.28 0.21 0.19 0.19 0.21 0.23 0.26 0.27 0.27 0.29 0.32 0.31 0.24 0.15 0.15 0.18 0.21 0.25 0.27 0.25 0.26 0.28 0.29 0.31 0.32 0.36 0.43
0.02 0.01 0.01 0.01 0.01 0.01 0.02 0.03 0.05 0.10 0.15 0.21 0.26 0.31 0.36 0.34 0.31 0.31 0.32 0.33 0.31 0.29 0.28 0.27 0.26 0.31 0.31 0.26 0.21 0.16 0.15 0.20 0.22 0.23 0.24 0.23 0.20 0.20 0.23 0.26 0.25 0.23 0.24
0.01 0.01 0.01 0.01 0.01 0.01 0.02 0.04 0.08 0.10 0.13 0.20 0.28 0.32 0.37 0.37 0.37 0.38 0.39 0.40 0.40 0.35 0.32 0.31 0.32 0.35 0.36 0.29 0.21 0.17 0.19 0.25 0.26 0.27 0.24 0.22 0.18 0.17 0.17 0.22 0.25 0.26 0.24
0.00 0.01 0.01 0.01 0.01 0.03 0.06 0.10 0.12 0.14 0.18 0.23 0.30 0.36 0.41 0.45 0.45 0.47 0.47 0.46 0.48 0.43 0.37 0.34 0.36 0.40 0.44 0.41 0.26 0.21 0.25 0.32 0.33 0.37 0.31 0.23 0.20 0.18 0.16 0.18 0.21 0.22 0.23
0.01 0.01 0.02 0.03 0.05 0.09 0.13 0.15 0.16 0.18 0.19 0.22 0.28 0.38 0.44 0.50 0.53 0.58 0.60 0.59 0.58 0.56 0.52 0.45 0.43 0.46 0.50 0.50 0.34 0.25 0.29 0.39 0.46 0.48 0.39 0.30 0.23 0.19 0.18 0.19 0.22 0.20 0.19
0.01 0.01 0.02 0.04 0.06 0.11 0.15 0.18 0.19 0.19 0.21 0.26 0.34 0.41 0.46 0.44 0.47 0.63 0.68 0.71 0.73 0.69 0.64 0.60 0.52 0.53 0.56 0.52 0.42 0.29 0.27 0.39 0.56 0.63 0.56 0.45 0.36 0.26 0.23 0.21 0.21 0.19 0.17
0.02 0.03 0.04 0.06 0.10 0.14 0.20 0.25 0.24 0.27 0.29 0.33 0.39 0.45 0.47 0.51 0.60 0.69 0.73 0.77 0.81 0.79 0.73 0.72 0.68 0.64 0.66 0.60 0.43 0.34 0.31 0.35 0.53 0.68 0.69 0.57 0.44 0.35 0.28 0.24 0.23 0.21 0.17
0.04 0.05 0.06 0.09 0.13 0.17 0.23 0.30 0.35 0.39 0.41 0.42 0.43 0.46 0.51 0.53 0.58 0.69 0.75 0.79 0.84 0.88 0.85 0.81 0.79 0.78 0.77 0.71 0.58 0.46 0.39 0.41 0.49 0.60 0.66 0.59 0.53 0.45 0.40 0.30 0.23 0.22 0.23
0.05 0.07 0.11 0.16 0.18 0.23 0.29 0.33 0.40 0.47 0.51 0.51 0.49 0.49 0.52 0.59 0.66 0.71 0.76 0.74 0.80 0.79 0.80 0.81 0.84 0.86 0.85 0.70 0.61 0.60 0.54 0.58 0.64 0.70 0.82 0.73 0.63 0.54 0.47 0.38 0.29 0.27 0.30
0.08 0.11 0.14 0.17 0.19 0.25 0.33 0.36 0.44 0.54 0.61 0.64 0.63 0.60 0.56 0.61 0.68 0.72 0.70 0.61 0.56 0.54 0.53 0.56 0.60 0.63 0.58 0.51 0.45 0.45 0.46 0.51 0.61 0.68 0.84 0.81 0.71 0.63 0.56 0.47 0.39 0.35 0.34

GEFSMW_prec_meanprecacc_084.txt.gz
Total_Precipitation_Accumulation
0.67 0.81 1.02 1.26 1.49 1.74 2.04 2.34 2.60 2.77 2.66 2.42 2.19 2.01 1.86 1.80 1.62 1.52 1.45 1.41 1.41 1.51 1.77 1.68 1.78 1.83 1.78 1.75 1.81 1.81 1.67 1.40 1.61 1.64 1.21 0.78 0.63 0.59 0.41 0.38 0.36 0.32 0.31
0.71 0.95 1.14 1.21 1.38 1.66 2.06 2.33 2.64 2.75 2.55 2.28 2.10 2.02 1.99 1.73 1.52 1.52 1.50 1.51 1.56 1.57 1.65 1.69 1.70 1.74 1.73 1.61 1.58 1.66 1.50 1.27 1.43 1.50 1.39 0.87 0.63 0.51 0.39 0.43 0.48 0.45 0.43
1.14 1.27 1.18 1.20 1.31 1.50 1.74 1.93 2.04 2.02 1.91 1.88 1.93 1.94 1.95 1.72 1.67 1.75 1.79 1.77 1.78 1.74 1.74 1.69 1.58 1.46 1.42 1.33 1.34 1.45 1.44 1.29 1.29 1.47 1.59 1.20 0.81 0.70 0.54 0.52 0.52 0.54 0.56
1.00 1.03 1.12 1.21 1.33 1.45 1.62 1.78 1.77 1.62 1.51 1.56 1.74 1.82 1.79 1.75 1.90 2.13 2.06 1.84 1.68 1.54 1.39 1.27 1.25 1.20 1.20 1.10 1.05 1.16 1.19 1.12 1.08 1.21 1.34 1.39 1.33 1.19 0.74 0.50 0.43 0.51 0.57
0.80 0.83 0.97 1.07 1.11 1.23 1.31 1.47 1.55 1.47 1.44 1.45 1.52 1.63 1.67 1.67 1.68 1.68 1.63 1.52 1.37 1.18 1.02 0.93 0.92 0.90 0.91 0.87 0.83 0.85 0.87 0.91 0.92 1.06 1.21 1.30 1.32 1.29 1.14 0.76 0.67 0.67 0.62
0.74 0.78 0.81 0.85 0.92 1.00 1.01 0.99 1.07 1.15 1.21 1.25 1.28 1.30 1.27 1.23 1.18 1.11 1.08 1.03 0.95 0.79 0.67 0.64 0.66 0.71 0.77 0.75 0.73 0.75 0.75 0.81 0.92 0.96 1.07 1.19 1.17 1.16 1.21 0.97 0.84 0.76 0.65
0.57 0.66 0.68 0.69 0.75 0.80 0.78 0.78 0.83 0.94 0.95 0.91 0.94 0.95 0.94 0.89 0.83 0.83 0.81 0.78 0.72 0.62 0.55 0.53 0.56 0.63 0.69 0.66 0.63 0.63 0.73 0.85 0.93 0.92 0.99 1.10 1.12 1.15 1.23 1.17 1.05 0.94 0.86
0.46 0.55 0.62 0.65 0.65 0.63 0.64 0.66 0.69 0.72 0.70 0.67 0.68 0.69 0.72 0.71 0.67 0.67 0.60 0.57 0.58 0.58 0.57 0.52 0.53 0.54 0.59 0.58 0.61 0.61 0.68 0.80 0.87 0.85 0.97 1.07 1.13 1.25 1.36 1.36 1.32 1.17 1.04
0.45 0.44 0.45 0.49 0.49 0.46 0.46 0.51 0.60 0.64 0.66 0.65 0.63 0.59 0.59 0.57 0.52 0.48 0.46 0.45 0.47 0.50 0.57 0.56 0.57 0.59 0.63 0.65 0.71 0.76 0.84 0.98 1.04 1.09 1.19 1.22 1.19 1.22 1.29 1.33 1.35 1.36 1.19
0.23 0.22 0.22 0.23 0.24 0.27 0.34 0.41 0.45 0.46 0.49 0.51 0.53 0.53 0.49 0.44 0.38 0.35 0.36 0.35 0.37 0.41 0.49 0.56 0.57 0.59 0.60 0.64 0.74 0.93 1.09 1.18 1.23 1.26 1.33 1.37 1.33 1.33 1.38 1.36 1.39 1.45 1.34
0.12 0.16 0.18 0.21 0.23 0.27 0.34 0.42 0.44 0.44 0.46 0.45 0.45 0.45 0.43 0.40 0.35 0.30 0.29 0.30 0.33 0.36 0.40 0.46 0.50 0.53 0.56 0.59 0.68 0.82 1.00 1.11 1.14 1.16 1.23 1.24 1.22 1.21 1.20 1.26 1.36 1.45 1.43
0.15 0.17 0.17 0.23 0.28 0.28 0.29 0.35 0.39 0.44 0.53 0.61 0.69 0.70 0.62 0.53 0.44 0.35 0.30 0.29 0.32 0.35 0.36 0.37 0.39 0.41 0.45 0.51 0.61 0.74 0.85 0.93 0.96 0.96 0.96 0.93 0.91 0.93 0.93 1.01 1.09 1.17 1.31
0.11 0.11 0.14 0.20 0.26 0.30 0.32 0.36 0.39 0.43 0.52 0.67 0.91 1.02 0.94 0.80 0.61 0.43 0.29 0.24 0.24 0.27 0.28 0.30 0.35 0.42 0.52 0.61 0.67 0.71 0.74 0.76 0.79 0.85 0.89 0.83 0.78 0.79 0.80 0.82 0.83 0.88 1.05
0.09 0.08 0.11 0.17 0.22 0.29 0.37 0.42 0.45 0.44 0.50 0.62 0.78 0.85 0.78 0.68 0.55 0.37 0.24 0.19 0.19 0.21 0.25 0.30 0.37 0.45 0.52 0.61 0.66 0.66 0.65 0.61 0.57 0.61 0.66 0.68 0.65 0.64 0.68 0.71 0.72 0.75 0.88
0.10 0.08 0.11 0.16 0.19 0.23 0.30 0.32 0.28 0.23 0.28 0.40 0.46 0.51 0.45 0.35 0.29 0.25 0.20 0.18 0.19 0.21 0.26 0.31 0.38 0.42 0.44 0.45 0.42 0.41 0.41 0.39 0.36 0.35 0.38 0.44 0.49 0.52 0.53 0.57 0.66 0.73 0.78
0.08 0.08 0.11 0.16 0.17 0.16 0.17 0.13 0.12 0.13 0.17 0.24 0.28 0.34 0.36 0.29 0.23 0.19 0.16 0.15 0.18 0.22 0.27 0.32 0.37 0.38 0.33 0.37 0.28 0.20 0.20 0.24 0.28 0.31 0.32 0.34 0.37 0.41 0.43 0.44 0.51 0.63 0.70
0.03 0.03 0.06 0.08 0.06 0.05 0.05 0.06 0.07 0.11 0.17 0.22 0.27 0.35 0.37 0.33 0.28 0.21 0.19 0.19 0.21 0.23 0.26 0.27 0.27 0.29 0.32 0.31 0.24 0.15 0.15 0.18 0.21 0.25 0.28 0.26 0.27 0.31 0.32 0.33 0.34 0.37 0.46
0.02 0.01 0.01 0.01 0.01 0.01 0.02 0.03 0.05 0.10 0.15 0.21 0.26 0.31 0.36 0.34 0.31 0.31 0.32 0.33 0.31 0.29 0.28 0.27 0.26 0.31 0.31 0.27 0.22 0.17 0.15 0.20 0.22 0.24 0.25 0.23 0.20 0.21 0.25 0.29 0.28 0.26 0.26
0.01 0.01 0.01 0.01 0.01 0.01 0.02 0.04 0.08 0.10 0.13 0.20 0.28 0.32 0.37 0.37 0.37 0.38 0.39 0.40 0.40 0.35 0.32 0.31 0.32 0.35 0.36 0.30 0.22 0.18 0.20 0.26 0.27 0.27 0.24 0.22 0.19 0.18 0.19 0.24 0.29 0.30 0.28
0.00 0.01 0.01 0.01 0.01 0.03 0.06 0.10 0.12 0.14 0.18 0.23 0.30 0.36 0.41 0.45 0.45 0.47 0.47 0.46 0.48 0.43 0.37 0.34 0.36 0.40 0.45 0.41 0.28 0.22 0.25 0.33 0.34 0.38 0.32 0.25 0.21 0.21 0.19 0.21 0.24 0.26 0.26
0.01 0.01 0.02 0.03 0.05 0.09 0.13 0.15 0.16 0.18 0.19 0.22 0.28 0.38 0.44 0.50 0.53 0.58 0.60 0.59 0.58 0.56 0.52 0.45 0.43 0.46 0.50 0.50 0.35 0.26 0.31 0.40 0.47 0.50 0.40 0.32 0.25 0.22 0.23 0.23 0.25 0.23 0.23
0.01 0.01 0.02 0.04 0.06 0.11 0.15 0.18 0.19 0.19 0.21 0.26 0.34 0.41 0.46 0.44 0.47 0.63 0.68 0.71 0.73 0.69 0.64 0.60 0.52 0.53 0.56 0.52 0.42 0.31 0.29 0.40 0.58 0.66 0.58 0.48 0.39 0.31 0.28 0.26 0.25 0.23 0.22
0.02 0.03 0.04 0.06 0.10 0.14 0.20 0.25 0.24 0.27 0.29 0.33 0.39 0.45 0.47 0.51 0.60 0.69 0.73 0.77 0.81 0.80 0.74 0.72 0.68 0.65 0.67 0.60 0.43 0.35 0.32 0.36 0.54 0.70 0.72 0.60 0.47 0.40 0.34 0.30 0.28 0.26 0.23
0.04 0.05 0.07 0.09 0.13 0.17 0.23 0.30 0.35 0.39 0.41 0.42 0.43 0.46 0.51 0.53 0.58 0.69 0.75 0.79 0.84 0.88 0.85 0.81 0.79 0.79 0.78 0.71 0.58 0.46 0.39 0.41 0.51 0.63 0.69 0.64 0.58 0.51 0.47 0.37 0.30 0.27 0.28
0.05 0.07 0.12 0.16 0.18 0.23 0.29 0.33 0.40 0.47 0.51 0.51 0.49 0.49 0.52 0.59 0.66 0.71 0.76 0.74 0.80 0.79 0.80 0.82 0.85 0.87 0.86 0.70 0.61 0.60 0.55 0.59 0.66 0.73 0.85 0.78 0.69 0.61 0.55 0.45 0.37 0.34 0.35
0.08 0.11 0.14 0.17 0.20 0.25 0.33 0.36 0.45 0.54 0.61 0.64 0.63 0.60 0.56 0.61 0.68 0.72 0.70 0.61 0.56 0.54 0.53 0.56 0.60 0.64 0.59 0.52 0.46 0.46 0.47 0.53 0.63 0.71 0.87 0.86 0.78 0.71 0.64 0.53 0.45 0.41 0.38

GEFSMW_prec_meanprecacc_090.txt.gz
Total_Precipitation_Accumulation
0.74 0.86 1.06 1.29 1.53 1.80 2.11 2.42 2.66 2.82 2.71 2.47 2.24 2.05 1.89 1.81 1.64 1.54 1.48 1.43 1.43 1.52 1.78 1.69 1.79 1.85 1.79 1.76 1.83 1.83 1.69 1.43 1.64 1.67 1.25 0.83 0.67 0.63 0.46 0.44 0.43 0.38 0.36
0.77 0.99 1.17 1.24 1.42 1.69 2.09 2.36 2.67 2.77 2.57 2.29 2.11 2.03 2.00 1.74 1.53 1.53 1.52 1.52 1.57 1.58 1.66 1.69 1.71 1.74 1.73 1.61 1.58 1.67 1.51 1.28 1.45 1.53 1.43 0.91 0.68 0.55 0.43 0.48 0.52 0.50 0.50
1.18 1.30 1.20 1.22 1.34 1.52 1.76 1.95 2.05 2.02 1.91 1.89 1.93 1.94 1.95 1.73 1.67 1.75 1.80 1.77 1.78 1.74 1.75 1.69 1.58 1.46 1.42 1.33 1.35 1.46 1.45 1.30 1.30 1.49 1.64 1.26 0.88 0.77 0.60 0.58 0.57 0.60 0.64
1.02 1.05 1.13 1.22 1.33 1.45 1.63 1.79 1.77 1.62 1.51 1.56 1.74 1.82 1.79 1.75 1.90 2.14 2.06 1.84 1.69 1.54 1.39 1.28 1.25 1.20 1.20 1.10 1.06 1.16 1.20 1.13 1.09 1.22 1.37 1.44 1.38 1.25 0.81 0.56 0.51 0.59 0.66
0.81 0.84 0.97 1.07 1.11 1.23 1.31 1.47 1.56 1.48 1.44 1.46 1.53 1.64 1.68 1.67 1.68 1.68 1.64 1.53 1.38 1.19 1.02 0.94 0.92 0.91 0.92 0.87 0.84 0.86 0.88 0.92 0.93 1.06 1.23 1.32 1.36 1.35 1.21 0.84 0.76 0.77 0.69
0.74 0.78 0.81 0.85 0.92 1.01 1.01 1.00 1.08 1.16 1.22 1.25 1.29 1.31 1.28 1.25 1.19 1.12 1.09 1.04 0.96 0.79 0.68 0.64 0.66 0.72 0.77 0.76 0.74 0.76 0.76 0.82 0.93 0.97 1.08 1.21 1.20 1.20 1.26 1.05 0.93 0.88 0.76
0.57 0.66 0.68 0.69 0.75 0.80 0.78 0.78 0.83 0.94 0.96 0.91 0.95 0.96 0.95 0.90 0.83 0.83 0.81 0.78 0.72 0.62 0.55 0.53 0.56 0.63 0.70 0.67 0.63 0.64 0.74 0.86 0.94 0.93 1.00 1.13 1.16 1.19 1.28 1.23 1.12 1.03 0.97
0.46 0.55 0.62 0.65 0.65 0.63 0.64 0.66 0.69 0.73 0.71 0.67 0.69 0.70 0.73 0.71 0.67 0.67 0.60 0.57 0.58 0.59 0.57 0.52 0.53 0.54 0.59 0.59 0.61 0.61 0.69 0.81 0.88 0.86 0.99 1.09 1.16 1.29 1.40 1.42 1.39 1.24 1.12
0.45 0.44 0.45 0.49 0.49 0.46 0.46 0.51 0.60 0.64 0.66 0.65 0.63 0.59 0.59 0.57 0.52 0.48 0.46 0.45 0.47 0.50 0.57 0.56 0.57 0.59 0.63 0.65 0.72 0.76 0.84 0.98 1.05 1.10 1.20 1.23 1.20 1.25 1.33 1.39 1.42 1.43 1.27
0.23 0.22 0.22 0.23 0.24 0.27 0.34 0.41 0.45 0.46 0.49 0.51 0.53 0.53 0.49 0.44 0.38 0.35 0.36 0.35 0.37 0.41 0.49 0.56 0.57 0.59 0.60 0.64 0.75 0.93 1.09 1.18 1.23 1.27 1.34 1.38 1.34 1.34 1.41 1.40 1.45 1.53 1.42
0.12 0.16 0.18 0.21 0.23 0.27 0.34 0.42 0.44 0.44 0.46 0.45 0.45 0.45 0.43 0.40 0.35 0.30 0.29 0.30 0.33 0.36 0.40 0.46 0.50 0.53 0.56 0.60 0.68 0.82 1.01 1.11 1.14 1.17 1.23 1.24 1.23 1.22 1.22 1.29 1.40 1.52 1.50
0.15 0.17 0.17 0.23 0.28 0.28 0.29 0.35 0.39 0.44 0.53 0.61 0.69 0.70 0.62 0.53 0.44 0.35 0.30 0.29 0.32 0.35 0.36 0.37 0.39 0.41 0.45 0.52 0.62 0.74 0.85 0.94 0.97 0.97 0.96 0.94 0.92 0.94 0.95 1.02 1.12 1.21 1.38
0.11 0.11 0.14 0.20 0.26 0.30 0.32 0.36 0.39 0.43 0.52 0.67 0.91 1.02 0.94 0.80 0.61 0.43 0.29 0.24 0.24 0.27 0.28 0.30 0.35 0.42 0.53 0.62 0.67 0.71 0.74 0.76 0.80 0.86 0.91 0.84 0.80 0.80 0.82 0.84 0.85 0.90 1.09
0.09 0.08 0.11 0.17 0.22 0.29 0.37 0.42 0.45 0.44 0.50 0.62 0.78 0.85 0.78 0.68 0.55 0.37 0.24 0.19 0.19 0.21 0.25 0.31 0.37 0.45 0.53 0.61 0.66 0.67 0.66 0.62 0.58 0.62 0.67 0.70 0.67 0.66 0.70 0.74 0.74 0.77 0.91
0.10 0.08 0.11 0.16 0.19 0.23 0.30 0.32 0.28 0.23 0.28 0.40 0.46 0.51 0.45 0.35 0.30 0.25 0.20 0.18 0.20 0.21 0.26 0.32 0.38 0.42 0.44 0.45 0.42 0.42 0.41 0.40 0.37 0.36 0.39 0.45 0.51 0.53 0.55 0.58 0.69 0.75 0.81
0.08 0.08 0.11 0.16 0.17 0.16 0.17 0.13 0.12 0.13 0.17 0.24 0.28 0.34 0.36 0.29 0.23 0.19 0.16 0.15 0.18 0.22 0.27 0.32 0.37 0.38 0.33 0.37 0.28 0.20 0.20 0.25 0.29 0.32 0.34 0.35 0.38 0.42 0.43 0.44 0.52 0.65 0.73
0.03 0.03 0.06 0.08 0.06 0.05 0.05 0.06 0.07 0.11 0.17 0.22 0.27 0.35 0.37 0.33 0.29 0.21 0.19 0.19 0.21 0.23 0.26 0.27 0.27 0.29 0.33 0.31 0.24 0.15 0.15 0.19 0.22 0.26 0.29 0.27 0.27 0.31 0.33 0.34 0.35 0.38 0.47
0.02 0.01 0.01 0.01 0.01 0.01 0.02 0.03 0.05 0.10 0.15 0.21 0.26 0.31 0.36 0.34 0.31 0.31 0.32 0.33 0.31 0.29 0.28 0.27 0.26 0.31 0.32 0.27 0.22 0.17 0.15 0.21 0.23 0.25 0.27 0.26 0.23 0.23 0.27 0.32 0.31 0.29 0.29
0.01 0.01 0.01 0.01 0.01 0.01 0.02 0.04 0.08 0.10 0.13 0.20 0.28 0.32 0.37 0.38 0.37 0.38 0.40 0.41 0.40 0.36 0.33 0.31 0.33 0.36 0.37 0.30 0.22 0.18 0.20 0.27 0.28 0.29 0.26 0.25 0.23 0.21 0.19 0.26 0.32 0.34 0.32
0.00 0.01 0.01 0.01 0.01 0.03 0.06 0.10 0.12 0.14 0.18 0.23 0.30 0.36 0.41 0.45 0.45 0.47 0.47 0.46 0.49 0.43 0.37 0.34 0.36 0.40 0.46 0.42 0.28 0.23 0.25 0.33 0.35 0.40 0.34 0.26 0.22 0.22 0.20 0.23 0.28 0.30 0.31
0.01 0.01 0.02 0.03 0.05 0.09 0.13 0.15 0.16 0.18 0.19 0.22 0.28 0.38 0.44 0.50 0.53 0.58 0.60 0.59 0.58 0.56 0.52 0.45 0.43 0.47 0.50 0.51 0.35 0.26 0.31 0.41 0.49 0.52 0.43 0.35 0.26 0.22 0.23 0.24 0.29 0.28 0.29
0.01 0.01 0.02 0.04 0.06 0.11 0.15 0.18 0.19 0.19 0.21 0.26 0.34 0.41 0.46 0.44 0.47 0.63 0.68 0.71 0.73 0.69 0.65 0.60 0.53 0.54 0.57 0.53 0.43 0.31 0.29 0.41 0.59 0.68 0.61 0.51 0.40 0.31 0.28 0.26 0.27 0.25 0.25
0.02 0.03 0.04 0.06 0.10 0.14 0.20 0.25 0.24 0.27 0.29 0.33 0.40 0.45 0.47 0.51 0.60 0.69 0.73 0.77 0.82 0.80 0.74 0.72 0.68 0.65 0.68 0.62 0.44 0.35 0.32 0.37 0.55 0.72 0.74 0.62 0.48 0.41 0.36 0.31 0.30 0.29 0.28
0.04 0.05 0.07 0.09 0.13 0.17 0.23 0.30 0.35 0.39 0.41 0.42 0.43 0.46 0.51 0.53 0.58 0.69 0.75 0.80 0.85 0.89 0.86 0.82 0.80 0.80 0.79 0.73 0.60 0.47 0.40 0.42 0.52 0.65 0.72 0.65 0.59 0.52 0.50 0.41 0.34 0.32 0.35
0.05 0.07 0.12 0.16 0.18 0.23 0.29 0.33 0.40 0.47 0.51 0.51 0.49 0.49 0.52 0.59 0.66 0.71 0.76 0.75 0.81 0.79 0.81 0.82 0.85 0.88 0.87 0.71 0.62 0.61 0.55 0.60 0.67 0.74 0.88 0.81 0.74 0.66 0.59 0.51 0.45 0.42 0.43
0.08 0.11 0.14 0.17 0.20 0.25 0.33 0.36 0.45 0.54 0.62 0.64 0.64 0.60 0.56 0.62 0.68 0.73 0.70 0.61 0.56 0.54 0.53 0.56 0.60 0.64 0.59 0.52 0.46 0.47 0.48 0.54 0.64 0.72 0.90 0.90 0.83 0.78 0.70 0.60 0.53 0.51 0.48

GEFSMW_prec_meanprecacc_096.txt.gz
Total_Precipitation_Accumulation
0.81 0.93 1.14 1.37 1.61 1.87 2.17 2.49 2.74 2.89 2.79 2.56 2.31 2.11 1.94 1.85 1.66 1.57 1.50 1.46 1.46 1.55 1.80 1.71 1.81 1.86 1.81 1.79 1.85 1.86 1.72 1.47 1.69 1.72 1.30 0.89 0.71 0.67 0.49 0.47 0.46 0.42 0.43
0.83 1.06 1.21 1.30 1.47 1.74 2.13 2.40 2.71 2.81 2.61 2.33 2.16 2.07 2.03 1.76 1.54 1.54 1.53 1.53 1.58 1.59 1.67 1.71 1.72 1.76 1.74 1.63 1.60 1.69 1.54 1.31 1.49 1.56 1.46 0.94 0.72 0.59 0.46 0.51 0.56 0.54 0.56
1.23 1.32 1.22 1.24 1.35 1.54 1.78 1.98 2.07 2.05 1.94 1.91 1.95 1.97 1.97 1.74 1.69 1.77 1.81 1.78 1.79 1.76 1.76 1.70 1.59 1.47 1.42 1.34 1.36 1.47 1.46 1.32 1.32 1.51 1.66 1.28 0.90 0.81 0.64 0.62 0.62 0.68 0.72
1.04 1.06 1.14 1.22 1.34 1.46 1.63 1.80 1.79 1.65 1.53 1.58 1.77 1.84 1.81 1.76 1.91 2.15 2.07 1.85 1.69 1.56 1.40 1.28 1.26 1.22 1.21 1.11 1.06 1.17 1.22 1.15 1.10 1.24 1.39 1.46 1.41 1.29 0.84 0.61 0.57 0.68 0.76
0.83 0.85 0.98 1.08 1.11 1.23 1.32 1.48 1.58 1.50 1.45 1.47 1.54 1.66 1.69 1.69 1.69 1.69 1.65 1.54 1.38 1.19 1.02 0.94 0.94 0.93 0.93 0.88 0.85 0.87 0.89 0.93 0.94 1.07 1.24 1.34 1.39 1.38 1.25 0.87 0.81 0.82 0.76
0.75 0.79 0.82 0.86 0.93 1.01 1.02 1.00 1.11 1.18 1.23 1.27 1.30 1.33 1.30 1.27 1.21 1.14 1.11 1.05 0.96 0.80 0.68 0.65 0.68 0.73 0.79 0.77 0.75 0.77 0.77 0.83 0.94 0.98 1.09 1.22 1.21 1.22 1.29 1.08 0.97 0.92 0.81
0.57 0.66 0.68 0.69 0.75 0.80 0.78 0.79 0.85 0.97 0.97 0.93 0.96 0.98 0.96 0.91 0.85 0.85 0.82 0.79 0.73 0.62 0.56 0.54 0.56 0.64 0.70 0.68 0.64 0.65 0.74 0.87 0.96 0.94 1.01 1.13 1.16 1.20 1.30 1.25 1.14 1.06 1.02
0.46 0.55 0.62 0.66 0.65 0.63 0.64 0.67 0.70 0.75 0.72 0.68 0.70 0.70 0.73 0.72 0.68 0.68 0.60 0.57 0.58 0.59 0.57 0.52 0.53 0.55 0.59 0.59 0.62 0.62 0.69 0.81 0.89 0.86 1.00 1.10 1.17 1.30 1.42 1.44 1.40 1.26 1.15
0.45 0.45 0.46 0.50 0.49 0.46 0.46 0.51 0.60 0.65 0.66 0.66 0.63 0.59 0.59 0.57 0.52 0.49 0.47 0.45 0.47 0.50 0.57 0.56 0.57 0.59 0.63 0.66 0.72 0.77 0.85 0.99 1.06 1.11 1.21 1.24 1.20 1.25 1.33 1.40 1.44 1.46 1.30
0.23 0.22 0.22 0.23 0.24 0.27 0.34 0.41 0.45 0.46 0.49 0.51 0.53 0.53 0.49 0.44 0.38 0.35 0.36 0.36 0.37 0.41 0.49 0.57 0.58 0.60 0.61 0.65 0.76 0.94 1.10 1.20 1.24 1.28 1.35 1.40 1.35 1.35 1.41 1.41 1.46 1.55 1.45
0.12 0.16 0.18 0.21 0.23 0.27 0.34 0.42 0.44 0.44 0.46 0.45 0.45 0.45 0.43 0.40 0.35 0.30 0.30 0.30 0.33 0.37 0.40 0.47 0.51 0.53 0.57 0.60 0.69 0.83 1.02 1.13 1.16 1.19 1.25 1.26 1.25 1.24 1.23 1.30 1.41 1.54 1.52
0.15 0.17 0.17 0.23 0.28 0.28 0.29 0.35 0.39 0.44 0.53 0.61 0.69 0.70 0.62 0.53 0.44 0.35 0.30 0.30 0.32 0.35 0.36 0.37 0.40 0.41 0.46 0.52 0.63 0.75 0.86 0.95 0.98 0.98 0.98 0.96 0.94 0.97 0.97 1.05 1.14 1.23 1.40
0.11 0.11 0.14 0.20 0.26 0.30 0.32 0.36 0.39 0.43 0.52 0.67 0.91 1.02 0.94 0.80 0.62 0.43 0.29 0.25 0.25 0.28 0.29 0.31 0.35 0.42 0.53 0.62 0.68 0.72 0.76 0.77 0.81 0.88 0.92 0.86 0.82 0.84 0.85 0.88 0.88 0.93 1.11
0.09 0.08 0.11 0.17 0.22 0.29 0.37 0.42 0.45 0.44 0.50 0.62 0.78 0.85 0.78 0.68 0.55 0.37 0.24 0.19 0.19 0.22 0.26 0.31 0.37 0.46 0.53 0.62 0.67 0.68 0.67 0.63 0.59 0.63 0.69 0.71 0.69 0.69 0.74 0.78 0.79 0.82 0.95
0.10 0.08 0.11 0.16 0.19 0.23 0.30 0.32 0.28 0.23 0.28 0.40 0.46 0.51 0.45 0.35 0.30 0.25 0.20 0.19 0.20 0.22 0.26 0.32 0.38 0.43 0.44 0.46 0.43 0.42 0.42 0.40 0.38 0.37 0.40 0.47 0.52 0.55 0.57 0.60 0.72 0.80 0.86
0.08 0.08 0.11 0.16 0.17 0.16 0.17 0.13 0.12 0.13 0.17 0.24 0.28 0.34 0.36 0.29 0.24 0.19 0.16 0.16 0.18 0.22 0.28 0.33 0.38 0.39 0.34 0.37 0.28 0.20 0.20 0.25 0.29 0.33 0.35 0.36 0.39 0.42 0.44 0.44 0.52 0.66 0.75
0.03 0.03 0.06 0.08 0.06 0.05 0.05 0.06 0.07 0.11 0.17 0.22 0.27 0.35 0.37 0.33 0.29 0.22 0.19 0.19 0.21 0.24 0.27 0.28 0.28 0.30 0.34 0.31 0.24 0.15 0.15 0.19 0.22 0.27 0.31 0.28 0.28 0.33 0.35 0.36 0.36 0.39 0.47
0.02 0.01 0.01 0.01 0.01 0.01 0.02 0.03 0.05 0.10 0.15 0.21 0.26 0.31 0.36 0.34 0.31 0.31 0.33 0.34 0.32 0.30 0.30 0.28 0.27 0.32 0.33 0.27 0.22 0.17 0.16 0.21 0.24 0.26 0.29 0.29 0.26 0.26 0.31 0.36 0.35 0.33 0.32
0.01 0.01 0.01 0.01 0.01 0.01 0.02 0.04 0.08 0.10 0.13 0.20 0.28 0.32 0.37 0.38 0.37 0.39 0.40 0.42 0.42 0.37 0.34 0.32 0.34 0.37 0.39 0.30 0.22 0.18 0.20 0.27 0.29 0.30 0.29 0.28 0.27 0.23 0.20 0.28 0.34 0.37 0.36
0.00 0.01 0.01 0.01 0.01 0.03 0.06 0.10 0.12 0.14 0.18 0.23 0.30 0.36 0.41 0.45 0.45 0.47 0.48 0.47 0.50 0.44 0.38 0.35 0.38 0.42 0.48 0.43 0.28 0.23 0.26 0.34 0.37 0.42 0.37 0.29 0.23 0.23 0.20 0.24 0.31 0.33 0.35
0.01 0.01 0.02 0.03 0.05 0.09 0.13 0.15 0.16 0.18 0.19 0.22 0.28 0.38 0.44 0.50 0.54 0.59 0.60 0.60 0.59 0.58 0.54 0.47 0.45 0.49 0.53 0.53 0.36 0.26 0.31 0.42 0.50 0.53 0.46 0.39 0.27 0.23 0.23 0.25 0.31 0.31 0.33
0.01 0.01 0.02 0.04 0.06 0.11 0.15 0.18 0.19 0.19 0.21 0.26 0.34 0.41 0.46 0.44 0.47 0.63 0.69 0.72 0.75 0.71 0.67 0.62 0.55 0.56 0.59 0.55 0.44 0.31 0.29 0.41 0.60 0.69 0.64 0.55 0.41 0.32 0.28 0.27 0.27 0.25 0.25
0.02 0.03 0.04 0.06 0.10 0.14 0.20 0.25 0.24 0.27 0.29 0.33 0.40 0.45 0.47 0.51 0.60 0.69 0.74 0.78 0.83 0.81 0.75 0.73 0.69 0.66 0.69 0.64 0.45 0.36 0.32 0.37 0.55 0.73 0.76 0.63 0.48 0.42 0.37 0.32 0.30 0.29 0.29
0.04 0.05 0.07 0.10 0.13 0.17 0.23 0.30 0.35 0.39 0.41 0.42 0.43 0.46 0.51 0.53 0.58 0.69 0.75 0.80 0.85 0.89 0.87 0.82 0.80 0.80 0.80 0.75 0.63 0.50 0.42 0.43 0.54 0.67 0.74 0.66 0.60 0.53 0.51 0.43 0.36 0.34 0.37
0.05 0.07 0.12 0.16 0.18 0.23 0.29 0.33 0.40 0.47 0.51 0.51 0.49 0.49 0.52 0.59 0.66 0.72 0.76 0.75 0.81 0.80 0.81 0.82 0.85 0.88 0.87 0.72 0.62 0.61 0.56 0.60 0.68 0.76 0.89 0.84 0.79 0.71 0.64 0.57 0.52 0.50 0.49
0.08 0.11 0.14 0.17 0.20 0.25 0.33 0.36 0.45 0.54 0.62 0.64 0.64 0.60 0.56 0.62 0.68 0.73 0.70 0.61 0.57 0.54 0.53 0.56 0.61 0.64 0.59 0.52 0.46 0.47 0.48 0.54 0.64 0.73 0.91 0.93 0.88 0.84 0.79 0.69 0.64 0.61 0.58

GEFSMW_prec_meanprecacc_102.txt.gz
Total_Precipitation_Accumulation
0.96 1.12 1.35 1.56 1.75 1.98 2.27 2.55 2.78 2.92 2.81 2.58 2.34 2.13 1.95 1.86 1.67 1.57 1.52 1.49 1.49 1.57 1.82 1.72 1.82 1.88 1.83 1.80 1.87 1.87 1.73 1.47 1.70 1.73 1.32 0.91 0.73 0.69 0.50 0.49 0.48 0.45 0.47
0.95 1.17 1.31 1.40 1.55 1.82 2.20 2.46 2.75 2.84 2.63 2.36 2.18 2.08 2.04 1.77 1.55 1.55 1.54 1.56 1.63 1.62 1.70 1.73 1.73 1.76 1.75 1.64 1.61 1.70 1.55 1.31 1.49 1.57 1.48 0.95 0.73 0.61 0.47 0.53 0.58 0.58 0.62
1.30 1.43 1.31 1.31 1.41 1.59 1.82 2.01 2.11 2.07 1.96 1.93 1.98 1.98 1.98 1.75 1.70 1.78 1.82 1.80 1.81 1.78 1.77 1.71 1.60 1.47 1.42 1.34 1.37 1.47 1.47 1.32 1.33 1.51 1.67 1.29 0.91 0.81 0.64 0.63 0.64 0.73 0.79
1.12 1.15 1.22 1.29 1.38 1.49 1.67 1.83 1.82 1.67 1.55 1.59 1.77 1.85 1.81 1.77 1.92 2.15 2.08 1.86 1.70 1.57 1.41 1.28 1.26 1.22 1.21 1.11 1.07 1.17 1.22 1.15 1.10 1.24 1.39 1.47 1.42 1.29 0.84 0.61 0.58 0.69 0.78
0.94 0.92 1.03 1.12 1.13 1.25 1.38 1.53 1.61 1.53 1.48 1.49 1.55 1.66 1.70 1.70 1.70 1.70 1.66 1.55 1.38 1.20 1.03 0.94 0.94 0.93 0.93 0.88 0.85 0.87 0.89 0.93 0.94 1.07 1.24 1.34 1.39 1.38 1.25 0.87 0.81 0.83 0.77
0.81 0.83 0.85 0.89 0.94 1.03 1.04 1.02 1.13 1.20 1.24 1.27 1.31 1.33 1.31 1.28 1.22 1.14 1.12 1.05 0.96 0.80 0.68 0.65 0.68 0.73 0.79 0.77 0.75 0.77 0.77 0.83 0.94 0.98 1.09 1.22 1.21 1.22 1.29 1.08 0.97 0.92 0.82
0.59 0.68 0.69 0.71 0.76 0.81 0.79 0.79 0.87 0.98 0.98 0.93 0.96 0.99 0.96 0.91 0.85 0.85 0.82 0.79 0.73 0.63 0.56 0.54 0.57 0.64 0.70 0.68 0.64 0.65 0.74 0.87 0.96 0.94 1.01 1.14 1.17 1.20 1.30 1.25 1.14 1.06 1.02
0.47 0.56 0.63 0.67 0.66 0.63 0.65 0.67 0.71 0.76 0.73 0.69 0.70 0.70 0.73 0.72 0.68 0.68 0.60 0.57 0.58 0.59 0.57 0.52 0.53 0.55 0.59 0.59 0.62 0.62 0.69 0.82 0.89 0.86 1.00 1.10 1.17 1.30 1.42 1.44 1.41 1.26 1.15
0.46 0.45 0.47 0.51 0.49 0.46 0.47 0.52 0.61 0.65 0.67 0.66 0.64 0.59 0.59 0.57 0.52 0.49 0.47 0.45 0.47 0.50 0.57 0.56 0.57 0.59 0.63 0.66 0.72 0.77 0.85 0.99 1.06 1.11 1.22 1.25 1.21 1.25 1.34 1.40 1.44 1.47 1.30
0.24 0.22 0.23 0.24 0.24 0.28 0.34 0.42 0.45 0.46 0.49 0.51 0.54 0.53 0.49 0.44 0.38 0.35 0.36 0.36 0.37 0.41 0.49 0.57 0.58 0.60 0.61 0.65 0.76 0.94 1.10 1.20 1.24 1.28 1.35 1.40 1.35 1.35 1.42 1.41 1.47 1.55 1.46
0.13 0.17 0.18 0.21 0.23 0.27 0.34 0.42 0.44 0.44 0.46 0.45 0.45 0.45 0.43 0.40 0.35 0.30 0.30 0.30 0.33 0.37 0.40 0.47 0.51 0.53 0.57 0.61 0.70 0.83 1.02 1.13 1.16 1.19 1.25 1.26 1.25 1.24 1.23 1.30 1.42 1.54 1.53
0.15 0.17 0.17 0.23 0.28 0.28 0.29 0.35 0.39 0.44 0.53 0.61 0.69 0.70 0.62 0.53 0.44 0.35 0.30 0.30 0.32 0.35 0.37 0.37 0.40 0.41 0.46 0.52 0.63 0.75 0.86 0.95 0.98 0.98 0.98 0.96 0.94 0.97 0.98 1.05 1.14 1.23 1.40
0.12 0.11 0.14 0.20 0.26 0.30 0.32 0.36 0.39 0.43 0.52 0.67 0.91 1.02 0.94 0.80 0.62 0.43 0.29 0.25 0.25 0.28 0.29 0.31 0.35 0.42 0.53 0.63 0.69 0.72 0.76 0.78 0.81 0.88 0.92 0.86 0.83 0.84 0.86 0.89 0.88 0.93 1.11
0.09 0.08 0.11 0.17 0.22 0.29 0.37 0.42 0.45 0.44 0.50 0.62 0.78 0.85 0.78 0.68 0.55 0.37 0.24 0.19 0.19 0.22 0.26 0.31 0.37 0.46 0.53 0.62 0.67 0.68 0.67 0.63 0.59 0.63 0.69 0.71 0.69 0.69 0.74 0.78 0.79 0.82 0.95
0.10 0.08 0.11 0.16 0.19 0.23 0.30 0.32 0.28 0.23 0.28 0.40 0.46 0.51 0.45 0.35 0.30 0.25 0.20 0.19 0.20 0.22 0.26 0.32 0.39 0.43 0.44 0.46 0.43 0.42 0.42 0.40 0.38 0.37 0.40 0.47 0.52 0.55 0.57 0.60 0.73 0.80 0.86
0.08 0.08 0.11 0.16 0.17 0.16 0.17 0.13 0.12 0.13 0.17 0.24 0.28 0.34 0.36 0.29 0.24 0.19 0.16 0.16 0.18 0.22 0.28 0.33 0.38 0.39 0.34 0.37 0.28 0.20 0.20 0.25 0.29 0.33 0.35 0.36 0.39 0.43 0.44 0.45 0.52 0.66 0.75
0.03 0.03 0.06 0.08 0.06 0.05 0.05 0.06 0.08 0.11 0.17 0.22 0.27 0.35 0.37 0.33 0.29 0.22 0.19 0.19 0.21 0.24 0.27 0.28 0.28 0.30 0.34 0.31 0.24 0.15 0.15 0.19 0.22 0.27 0.31 0.28 0.28 0.33 0.35 0.36 0.36 0.39 0.47
0.02 0.01 0.01 0.01 0.01 0.01 0.02 0.04 0.05 0.10 0.15 0.21 0.26 0.31 0.36 0.34 0.31 0.31 0.33 0.34 0.32 0.30 0.30 0.28 0.27 0.32 0.33 0.27 0.22 0.17 0.16 0.21 0.24 0.27 0.29 0.29 0.26 0.26 0.31 0.36 0.36 0.33 0.32
0.01 0.01 0.01 0.01 0.01 0.01 0.02 0.05 0.08 0.10 0.14 0.20 0.28 0.33 0.37 0.38 0.37 0.39 0.40 0.42 0.42 0.37 0.34 0.32 0.34 0.37 0.39 0.31 0.22 0.18 0.20 0.27 0.29 0.30 0.29 0.28 0.27 0.24 0.20 0.28 0.35 0.37 0.36
0.00 0.01 0.01 0.01 0.02 0.03 0.06 0.11 0.12 0.14 0.18 0.23 0.30 0.36 0.41 0.45 0.45 0.47 0.48 0.47 0.50 0.44 0.38 0.35 0.38 0.42 0.48 0.43 0.28 0.23 0.26 0.34 0.37 0.42 0.37 0.29 0.24 0.23 0.20 0.25 0.31 0.34 0.35
0.01 0.01 0.02 0.03 0.05 0.09 0.14 0.16 0.16 0.18 0.19 0.22 0.28 0.39 0.44 0.51 0.54 0.59 0.60 0.60 0.59 0.58 0.54 0.47 0.45 0.49 0.53 0.53 0.36 0.26 0.31 0.42 0.50 0.53 0.46 0.39 0.27 0.23 0.23 0.25 0.31 0.31 0.33
0.01 0.02 0.02 0.04 0.06 0.11 0.15 0.18 0.19 0.19 0.21 0.26 0.34 0.41 0.46 0.44 0.47 0.63 0.69 0.72 0.75 0.71 0.67 0.63 0.55 0.56 0.59 0.55 0.44 0.31 0.29 0.41 0.60 0.69 0.64 0.55 0.41 0.32 0.28 0.27 0.27 0.26 0.25
0.03 0.03 0.04 0.07 0.10 0.14 0.20 0.25 0.25 0.28 0.30 0.34 0.40 0.45 0.47 0.51 0.60 0.69 0.74 0.78 0.83 0.81 0.75 0.73 0.69 0.66 0.69 0.64 0.45 0.36 0.32 0.37 0.55 0.73 0.76 0.63 0.48 0.42 0.37 0.32 0.30 0.29 0.29
0.05 0.06 0.07 0.10 0.14 0.17 0.23 0.31 0.36 0.41 0.42 0.42 0.43 0.46 0.51 0.53 0.58 0.69 0.75 0.80 0.85 0.89 0.87 0.82 0.80 0.80 0.80 0.75 0.63 0.50 0.42 0.43 0.54 0.67 0.74 0.66 0.60 0.53 0.51 0.43 0.36 0.34 0.37
0.07 0.08 0.13 0.17 0.19 0.24 0.30 0.34 0.41 0.47 0.51 0.51 0.50 0.49 0.53 0.59 0.66 0.72 0.76 0.75 0.81 0.80 0.81 0.82 0.85 0.88 0.87 0.72 0.62 0.61 0.56 0.61 0.68 0.76 0.89 0.84 0.79 0.71 0.64 0.58 0.53 0.50 0.49
0.11 0.14 0.17 0.19 0.21 0.26 0.34 0.37 0.45 0.55 0.62 0.65 0.65 0.61 0.57 0.62 0.68 0.73 0.70 0.61 0.57 0.54 0.53 0.57 0.61 0.64 0.59 0.52 0.46 0.47 0.48 0.54 0.64 0.73 0.91 0.93 0.88 0.85 0.79 0.70 0.64 0.62 0.58